CZ-6A DEB, 56661

Orbit data source: Space-Track

CZ-6A DEB, 56661 is space debris in SSO originally from a launch on Fri, 11 Nov 2022 UTC launched from the Taiyaun Space Center, China (TSC). Debris objects in space refer to the collection of defunct objects orbiting the Earth. Examples of debris include non-operational satellites, rocket bodies, and fragments generated from explosions, collisions, or faulty payload assembly.

Loading next visibility...
Identifier
56661, 2022-151AGM
Orbit
SSO
Country
Flag of CNCN / PRC
Related business
Manufacturer
SAST
Mission
Spacecraft
Bus & Motor
Unknown
Mass
Unknown
Launch date (UTC)
2022-11-11 (4 years ago)
Launch vehicle
Unknown
Launch site
Taiyaun Space Center, China (TSC)
Object type
Payload
Rocket body
Debris
Shape & HBR
Unknown shape, 0.1 m
Radar Cross Section
Small (<0.1 m²)

Expand to show TLE details & history
Last TLE update: 1 day ago

TLE from 1 day ago
0 CZ-6A DEB
1 56661U 22151AGM 26235.36894412  .00000382  00000-0  12804-3 0  9991
2 56661  98.6759 288.5399 0102673  84.3887 276.9000 14.40097941180036
Epoch: 2026-08-23T08:51Z
TLE epoch observation values (Epoch: 2026-08-23T08:51:16.771Z)
Latitude
0.00004°
Longitude
-175.94598°
Altitude
753.057 km
Speed
7.482 km/s
True Right ascension
19h 14m 09s
True Declination
0° 00' 00"
Sunlit
Object was in full shadow at epoch
Visualization orbit readout
Latitude
Unknown
Longitude
Unknown
Altitude
Unknown
Speed
Unknown
Apparent Right ascension
Unknown
Apparent Declination
Unknown
Sunlit
N/A
Visualization observer readout
Local Sidereal Time
10:17:27
Azimuth
Unknown
Elevation
Unknown
Doppler factor
Unknown
Orbital elements
Apogee altitude
828.546 km
Perigee altitude
682.063 km
Semi-major axis
7,133.442 km
Eccentricity
0.01027
Inclination
98.6759°
RAAN
288.5399°
Arg. of periapsis
84.3887°
True anomaly
275.73025°
Mean anomaly
276.9°
Eccentric anomaly
276.3153°
Mean motion
3.60242 °/min
Orbital period
99.93 mins
BSTAR
0.00012804
Loading maneuver chart data...
Computing Atmospheric mass density...

Documentation

Showing up to 5 results
|